Muskegon, MI

1:31 AM EDT on May 27, 2018 (GMT -0400)
Muskegon County

Weather History for KMKG - September, 2013

Change the Weather History Date:

Wednesday, September 11, 2013

  Actual Average Record
Temperature  
Mean Temperature 75 °F 64 °F  
Max Temperature 84 °F 73 °F 88 °F (1952)
Min Temperature 66 °F 55 °F 34 °F (1943)
Degree Days  
Heating Degree Days 0 3  
Month to date heating degree days 3 26  
Since 1 July heating degree days 38 56  
Cooling Degree Days 10 2  
Month to date cooling degree days 64 33  
Year to date cooling degree days 603 540  
Growing Degree Days 26 (Base 50)    
Moisture  
Dew Point 65 °F    
Average Humidity 71    
Maximum Humidity 90    
Minimum Humidity 51    
Precipitation  
Precipitation 0.02 in 0.13 in 4.33 in (1986)
Month to date precipitation 0.76 1.36  
Year to date precipitation 32.01 21.94  
Snow  
Snow 0.00 in 0.00 in - ()
Month to date snowfall 0.0 0.0  
Since 1 July snowfall 0.0 0.0  
Since 1 September snowfall 0.0 0.0  
Snow Depth 0.00 in    
Sea Level Pressure  
Sea Level Pressure 29.99 in    
Wind  
Wind Speed 6 mph (WSW)    
Max Wind Speed 21 mph    
Max Gust Speed 26 mph    
Visibility 10 miles    
Events Rain    
T = Trace of Precipitation, MM = Missing Value Source: NWS Daily Summary

Daily Weather History Graph

Daily Weather History Graph

Search for Another Location

Airport or City:

Astronomy

Sep. 11, 2013 Rise Set
Actual Time 7:20 AM EDT 8:01 PM EDT
Civil Twilight 6:51 AM EDT 8:30 PM EDT
Nautical Twilight 6:17 AM EDT 9:04 PM EDT
Astronomical Twilight 5:42 AM EDT 9:39 PM EDT
Moon 1:58 PM EDT (9/11) 11:46 PM EDT (9/11)
Length of Visible Light 13h 38m
Length of Day
12h 41m
Waxing Crescent, 38% of the Moon is Illuminated
Sep 11
Waxing Crescent
Sep 12
First Quarter
Sep 19
Full
Sep 26
Last Quarter
Oct 4
New

Hourly Weather History & Observations

Time (EDT) Temp. Heat Index Dew Point Humidity Pressure Visibility Wind Dir Wind Speed Gust Speed Precip Events Conditions
12:55 AM 81.0 °F 82.7 °F 64.9 °F 58% 29.94 in 10.0 mi SSW 17.3 mph 25.3 mph N/A   Clear
1:55 AM 79.0 °F - 64.9 °F 62% 29.94 in 10.0 mi SSW 15.0 mph 25.3 mph N/A   Clear
2:55 AM 80.1 °F 81.9 °F 64.9 °F 60% 29.94 in 10.0 mi SW 18.4 mph 24.2 mph N/A   Overcast
3:55 AM 75.0 °F - 66.9 °F 76% 29.96 in 10.0 mi SW 8.1 mph - N/A   Partly Cloudy
4:55 AM 73.0 °F - 66.9 °F 81% 29.96 in 10.0 mi SSW 8.1 mph - N/A   Partly Cloudy
5:55 AM 72.0 °F - 66.9 °F 84% 29.97 in 8.0 mi WNW 3.5 mph - N/A   Partly Cloudy
6:55 AM 70.0 °F - 66.9 °F 90% 29.99 in 6.0 mi NNW 4.6 mph - N/A   Mostly Cloudy
7:55 AM 72.0 °F - 66.0 °F 81% 30.01 in 10.0 mi Calm Calm - N/A   Mostly Cloudy
8:55 AM 75.0 °F - 66.0 °F 73% 30.02 in 10.0 mi Calm Calm - N/A   Mostly Cloudy
9:55 AM 75.0 °F - 66.9 °F 76% 30.06 in 8.0 mi NW 5.8 mph - 0.00 in Rain Light Rain
10:55 AM 77.0 °F - 64.0 °F 64% 30.02 in 10.0 mi West 4.6 mph - 0.00 in   Mostly Cloudy
11:55 AM 78.1 °F - 63.0 °F 60% 30.01 in 10.0 mi WSW 3.5 mph - N/A   Overcast
12:55 PM 80.1 °F 81.2 °F 62.1 °F 54% 30.00 in 10.0 mi SW 6.9 mph - N/A   Mostly Cloudy
1:55 PM 82.0 °F 83.0 °F 62.1 °F 51% 30.01 in 10.0 mi WSW 10.4 mph - N/A   Mostly Cloudy
2:55 PM 78.1 °F - 64.0 °F 62% 30.01 in 10.0 mi WSW 6.9 mph - N/A   Mostly Cloudy
3:55 PM 75.9 °F - 64.0 °F 67% 30.02 in 10.0 mi WSW 10.4 mph - N/A   Mostly Cloudy
4:55 PM 73.0 °F - 66.9 °F 81% 30.01 in 10.0 mi WSW 9.2 mph - 0.02 in Rain Light Rain
5:55 PM 73.9 °F - 66.9 °F 79% 29.99 in 10.0 mi SW 5.8 mph - 0.00 in Rain Light Rain
6:55 PM 75.0 °F - 66.0 °F 73% 29.97 in 10.0 mi West 8.1 mph - 0.00 in   Mostly Cloudy
7:55 PM 72.0 °F - 66.0 °F 81% 29.97 in 10.0 mi SW 5.8 mph - N/A   Mostly Cloudy
8:55 PM 69.1 °F - 66.0 °F 90% 29.97 in 10.0 mi SW 4.6 mph - N/A   Mostly Cloudy
9:55 PM 68.0 °F - 64.9 °F 90% 29.97 in 10.0 mi Calm Calm - N/A   Scattered Clouds
10:55 PM 68.0 °F - 64.9 °F 90% 29.96 in 10.0 mi South 4.6 mph - N/A   Scattered Clouds
11:55 PM 69.1 °F - 64.0 °F 84% 29.96 in 10.0 mi SSW 3.5 mph - N/A   Clear